Hourly Weather Allende

Today, 3 March, Wednesday

Time Temperature Precipitation Wind Pressure Humidity
00:00 +12°C° 0 mm 2 mps 731 mmHg 49%
01:00 +12°C° 0 mm 2 mps 730 mmHg 51%
02:00 +11°C° 0 mm 3 mps 730 mmHg 52%
03:00 +10°C° 0 mm 2 mps 730 mmHg 54%
04:00 +10°C° 0 mm 2 mps 730 mmHg 55%
05:00 +10°C° 0 mm 2 mps 730 mmHg 57%
06:00 +12°C° 0 mm 2 mps 730 mmHg 54%
07:00 +12°C° 0 mm 3 mps 731 mmHg 51%
08:00 +13°C° 0 mm 3 mps 731 mmHg 48%
09:00 +15°C° 0 mm 4 mps 731 mmHg 44%
10:00 +18°C° 0 mm 4 mps 731 mmHg 40%
11:00 +20°C° 0 mm 4 mps 731 mmHg 36%
12:00 +21°C° 0 mm 4 mps 730 mmHg 34%
13:00 +22°C° 0 mm 4 mps 730 mmHg 33%
14:00 +23°C° 0 mm 4 mps 729 mmHg 31%
15:00 +23°C° 0 mm 4 mps 729 mmHg 35%
16:00 +22°C° 0 mm 4 mps 729 mmHg 38%
17:00 +21°C° 0 mm 4 mps 729 mmHg 42%
18:00 +20°C° 0 mm 4 mps 729 mmHg 45%
19:00 +19°C° 0 mm 4 mps 730 mmHg 48%
20:00 +18°C° 0 mm 3 mps 730 mmHg 50%
21:00 +17°C° 0 mm 3 mps 730 mmHg 53%
22:00 +17°C° 0 mm 3 mps 730 mmHg 55%
23:00 +16°C° 0 mm 3 mps 730 mmHg 58%

Tomorrow, 4 March, Thursday

Time Temperature Precipitation Wind Pressure Humidity
00:00 +15°C° 0 mm 4 mps 730 mmHg 66%
01:00 +14°C° 0 mm 4 mps 730 mmHg 73%
02:00 +13°C° 0 mm 4 mps 729 mmHg 81%
03:00 +13°C° 0 mm 4 mps 729 mmHg 84%
04:00 +13°C° 0 mm 3 mps 729 mmHg 87%
05:00 +13°C° 0 mm 3 mps 729 mmHg 91%
06:00 +13°C° 0 mm 3 mps 729 mmHg 88%
07:00 +14°C° 0 mm 4 mps 729 mmHg 85%
08:00 +15°C° 0 mm 4 mps 730 mmHg 81%
09:00 +18°C° 0 mm 4 mps 730 mmHg 72%
10:00 +20°C° 0 mm 5 mps 730 mmHg 63%
11:00 +22°C° 0 mm 5 mps 729 mmHg 54%
12:00 +25°C° 0 mm 5 mps 728 mmHg 50%
13:00 +26°C° 0 mm 6 mps 728 mmHg 47%
14:00 +27°C° 0 mm 6 mps 727 mmHg 43%
15:00 +27°C° 0 mm 6 mps 726 mmHg 46%
16:00 +26°C° 0 mm 5 mps 726 mmHg 50%
17:00 +25°C° 0 mm 5 mps 726 mmHg 53%
18:00 +25°C° 0 mm 5 mps 726 mmHg 57%
19:00 +23°C° 0 mm 5 mps 726 mmHg 61%
20:00 +22°C° 0 mm 6 mps 726 mmHg 65%
21:00 +21°C° 0 mm 4 mps 726 mmHg 73%
22:00 +19°C° 0 mm 3 mps 726 mmHg 81%
23:00 +18°C° 0 mm 2 mps 726 mmHg 89%

Day after tomorrow, 5 March, Friday

Time Temperature Precipitation Wind Pressure Humidity
00:00 +18°C° 0 mm 2 mps 726 mmHg 90%
01:00 +18°C° 0 mm 2 mps 726 mmHg 90%
02:00 +18°C° 0 mm 3 mps 726 mmHg 90%
03:00 +17°C° 0 mm 3 mps 726 mmHg 91%
04:00 +16°C° 0 mm 3 mps 726 mmHg 92%
05:00 +15°C° 0 mm 2 mps 727 mmHg 93%
06:00 +17°C° 0 mm 4 mps 727 mmHg 74%
07:00 +19°C° 0 mm 5 mps 728 mmHg 54%
08:00 +20°C° 0 mm 6 mps 729 mmHg 35%
09:00 +21°C° 0 mm 8 mps 729 mmHg 31%
10:00 +22°C° 0 mm 9 mps 729 mmHg 27%
11:00 +24°C° 0 mm 11 mps 729 mmHg 23%
12:00 +24°C° 0 mm 10 mps 729 mmHg 24%
13:00 +26°C° 0 mm 10 mps 728 mmHg 24%
14:00 +26°C° 0 mm 10 mps 728 mmHg 24%
15:00 +26°C° 0 mm 9 mps 728 mmHg 26%
16:00 +24°C° 0 mm 8 mps 728 mmHg 29%
17:00 +23°C° 0 mm 7 mps 728 mmHg 32%
18:00 +22°C° 0 mm 6 mps 729 mmHg 35%
19:00 +20°C° 0 mm 6 mps 730 mmHg 37%
20:00 +19°C° 0 mm 5 mps 730 mmHg 40%
21:00 +17°C° 0 mm 5 mps 731 mmHg 46%
22:00 +15°C° 0 mm 5 mps 731 mmHg 52%
23:00 +14°C° 0 mm 5 mps 732 mmHg 59%

6 March, Saturday

Time Temperature Precipitation Wind Pressure Humidity
00:00 +14°C° 0 mm 5 mps 732 mmHg 60%
01:00 +13°C° 0 mm 5 mps 732 mmHg 61%
02:00 +13°C° 0 mm 5 mps 732 mmHg 62%
03:00 +12°C° 0 mm 5 mps 733 mmHg 63%
04:00 +12°C° 0 mm 5 mps 733 mmHg 65%
05:00 +10°C° 0 mm 5 mps 733 mmHg 67%
06:00 +12°C° 0 mm 5 mps 734 mmHg 65%
07:00 +11°C° 0 mm 6 mps 734 mmHg 63%
08:00 +13°C° 0 mm 6 mps 734 mmHg 62%
09:00 +14°C° 0 mm 6 mps 734 mmHg 58%
10:00 +15°C° 0 mm 5 mps 734 mmHg 54%
11:00 +17°C° 0 mm 4 mps 734 mmHg 50%
12:00 +18°C° 0 mm 4 mps 733 mmHg 48%
13:00 +19°C° 0 mm 4 mps 732 mmHg 45%
14:00 +20°C° 0 mm 4 mps 731 mmHg 43%
15:00 +19°C° 0 mm 4 mps 731 mmHg 45%
16:00 +17°C° 0 mm 5 mps 731 mmHg 48%
17:00 +17°C° 0 mm 5 mps 731 mmHg 51%
18:00 +15°C° 0 mm 5 mps 731 mmHg 56%
19:00 +14°C° 0 mm 5 mps 732 mmHg 61%
20:00 +13°C° 0 mm 5 mps 732 mmHg 66%
21:00 +13°C° 0 mm 4 mps 732 mmHg 69%
22:00 +12°C° 0 mm 4 mps 732 mmHg 72%
23:00 +12°C° 0 mm 3 mps 732 mmHg 75%

7 March, Sunday

Time Temperature Precipitation Wind Pressure Humidity
00:00 +12°C° 0 mm 3 mps 732 mmHg 76%
01:00 +11°C° 0 mm 3 mps 732 mmHg 78%
02:00 +11°C° 0 mm 3 mps 732 mmHg 80%
03:00 +11°C° 0 mm 3 mps 732 mmHg 80%
04:00 +11°C° 0 mm 3 mps 732 mmHg 80%
05:00 +12°C° 0 mm 2 mps 732 mmHg 80%
06:00 +12°C° 0 mm 3 mps 732 mmHg 79%
07:00 +12°C° 0 mm 3 mps 733 mmHg 78%
08:00 +13°C° 0 mm 4 mps 734 mmHg 76%
09:00 +13°C° 0 mm 4 mps 734 mmHg 74%
10:00 +14°C° 0 mm 4 mps 734 mmHg 72%
11:00 +14°C° 0 mm 4 mps 734 mmHg 70%
12:00 +14°C° 0 mm 4 mps 733 mmHg 68%
13:00 +15°C° 0 mm 4 mps 733 mmHg 66%
14:00 +16°C° 0 mm 3 mps 733 mmHg 64%
15:00 +16°C° 0 mm 3 mps 733 mmHg 63%
16:00 +17°C° 0 mm 4 mps 733 mmHg 61%
17:00 +17°C° 0 mm 4 mps 733 mmHg 59%
18:00 +16°C° 0 mm 3 mps 733 mmHg 62%
19:00 +16°C° 0 mm 3 mps 734 mmHg 65%
20:00 +14°C° 0 mm 3 mps 734 mmHg 68%
21:00 +13°C° 0 mm 3 mps 734 mmHg 71%
22:00 +13°C° 0 mm 3 mps 734 mmHg 75%
23:00 +13°C° 0 mm 3 mps 734 mmHg 78%

8 March, Monday

Time Temperature Precipitation Wind Pressure Humidity
00:00 +13°C° 0 mm 3 mps 734 mmHg 81%
01:00 +12°C° 0 mm 3 mps 734 mmHg 84%
02:00 +12°C° 0 mm 3 mps 733 mmHg 87%
03:00 +12°C° 0 mm 3 mps 733 mmHg 89%
04:00 +12°C° 0 mm 3 mps 733 mmHg 90%
05:00 +12°C° 0 mm 3 mps 733 mmHg 92%
06:00 +13°C° 0 mm 3 mps 734 mmHg 89%
07:00 +14°C° 0 mm 4 mps 734 mmHg 86%
08:00 +14°C° 0 mm 5 mps 735 mmHg 83%
09:00 +16°C° 0 mm 5 mps 735 mmHg 76%
10:00 +17°C° 0 mm 5 mps 735 mmHg 69%
11:00 +20°C° 0 mm 5 mps 735 mmHg 63%
12:00 +20°C° 0 mm 5 mps 734 mmHg 60%
13:00 +21°C° 0 mm 5 mps 733 mmHg 57%
14:00 +21°C° 0 mm 6 mps 733 mmHg 55%
15:00 +21°C° 0 mm 5 mps 732 mmHg 56%
16:00 +21°C° 0 mm 5 mps 732 mmHg 58%
17:00 +21°C° 0 mm 5 mps 732 mmHg 59%
18:00 +20°C° 0 mm 4 mps 733 mmHg 64%
19:00 +19°C° 0 mm 4 mps 733 mmHg 69%
20:00 +18°C° 0 mm 4 mps 733 mmHg 74%
21:00 +17°C° 0 mm 4 mps 733 mmHg 78%
22:00 +17°C° 0 mm 4 mps 733 mmHg 81%
23:00 +17°C° 0 mm 4 mps 733 mmHg 84%
Show more